STARLINK-4712, 53798

Orbit data source: Space-Track

STARLINK-4712, 53798 is a payload satellite owned by SpaceX/Seattle (US) in LEO that was launched on Sun, 11 Sep 2022 UTC via an FALCON 9 launch vehicle from the Air Force Eastern Test Range (AFETR). Payloads include a variety of satellites, spacecraft, and rockets equipped with specific instruments for various scientific and technological missions. These include communications satellites like Starlink; space stations such as the ISS; scientific satellites like the Hubble; Earth observation satellites from companies like Planet Labs, Umbra, and HawkEye 360; GPS; miniature CubeSats for education and research; and military/defense satellites.

Loading next visibility...
Last TLE update11 hours ago
ManufacturerSpaceX/Seattle
MissionOperational Commercial Communications
Bus & MotorSTARLINK, Unknown motor
Mass305 kg wet, ~290 kg dry
Shape & HBRBox + 1 Pan, 10.11 m
Radar Cross Section13.562 m², Large (>1 m²)

Expand to show TLE details & history

TLE from 11 hours ago
0 STARLINK-4712
1 53798U 22111AB  25066.86470461  .00000315  00000-0  37911-4 0  9998
2 53798  53.2164 120.4650 0001411  84.8619 275.2534 15.08842474138302
Epoch: 2025-03-07T20:45Z
Definitive object data (Epoch: 2025-03-07T20:45:10.478Z)
Latitude-0.00003°
Longitude3.35238°
Altitude540.544 km
Speed7.593 km/s
True Right ascension08h 01m 51s
True Declination0° 00' 00"
Sunlit
Object was in full shadow at TLE epoch
Visualization TLE readout
Latitude-36.39455°
Longitude-31.92627°
Altitude552.107 km
Speed7.585 km/s
Apparent Right ascension02h 57m 30s
Apparent Declination-47° 26' 29"
Sunlit
Object is in daylight
Visualization observer readout
Local Sidereal Time11:44:51
Azimuth241.335° WSW
Elevation-54.95°
Doppler factor1
Orbital elements
Apogee altitude540.957 km
Perigee altitude539.005 km
Semi-major axis6,918.118 km
Eccentricity0.0001411
Inclination53.2164°
RAAN120.465°
Arg. of periapsis84.8619°
True anomaly275.2373°
Mean anomaly275.2534°
Eccentric anomaly275.24535°
Mean motion3.77191 °/min
BSTAR0.000037911
Orbital period95.44 mins
Loading maneuver chart data...
Loading historical data...
Loading historical data...
Loading historical data...
Loading historical data...
Loading historical data...
Loading historical data...
Loading historical data...

STARLINK-4712 Visibility forecast

Observer location: undefined°, undefined

Span
Click to sort rows by Start time (UTC) header in descending order
Start Az.
Max El. time (UTC)
Max El. Az.
Max El.
End time (UTC)
End Az.
5 mins2025-03-08 08:09:15.609Z297.922° NW2025-03-08 08:11:15.609Z330.526° NNW18.043°2025-03-08 08:14:15.609Z22.42° NNE
4 mins2025-03-08 11:31:15.609Z349.429° N2025-03-08 11:33:15.609Z29.374° NE19.785°2025-03-08 11:35:15.609Z64.584° ENE
6 mins2025-03-08 13:10:15.609Z308.364° NW2025-03-08 13:12:15.609Z298.321° NW43.039°2025-03-08 13:16:15.609Z133.364° SE
6 mins2025-03-09 06:20:15.609Z244.949° WSW2025-03-09 06:23:15.609Z333.969° NNW41.296°2025-03-09 06:26:15.609Z41.769° NE
|